"Time","Value","Approval","myLocation"
"2023-05-06 00:00",6.83300250642331,"Approved","OW291"
"2023-05-06 01:00",6.83201165148135,"Approved","OW291"
"2023-05-06 02:00",6.83202079653939,"Approved","OW291"
"2023-05-06 03:00",6.83502994159743,"Approved","OW291"
"2023-05-06 04:00",6.84703908665547,"Approved","OW291"
"2023-05-06 05:00",6.85204823171351,"Approved","OW291"
"2023-05-06 06:00",6.85405737677155,"Approved","OW291"
"2023-05-06 07:00",6.85606652182959,"Approved","OW291"
"2023-05-06 08:00",6.85507566688763,"Approved","OW291"
"2023-05-06 09:00",6.85408481194567,"Approved","OW291"
"2023-05-06 10:00",6.85409395700371,"Approved","OW291"
"2023-05-06 11:00",6.85110310206175,"Approved","OW291"
"2023-05-06 12:00",6.85011224711979,"Approved","OW291"
"2023-05-06 13:00",6.85212139217783,"Approved","OW291"
"2023-05-06 14:00",6.85913053723587,"Approved","OW291"
"2023-05-06 15:00",6.86613968229391,"Approved","OW291"
"2023-05-06 16:00",6.86914882735195,"Approved","OW291"
"2023-05-06 17:00",6.87515797240999,"Approved","OW291"
"2023-05-06 18:00",6.87916711746803,"Approved","OW291"
"2023-05-06 19:00",6.88017626252607,"Approved","OW291"
"2023-05-06 20:00",6.87918540758411,"Approved","OW291"
"2023-05-06 21:00",6.87719455264215,"Approved","OW291"
"2023-05-06 22:00",6.87420369770019,"Approved","OW291"
"2023-05-06 23:00",6.87221284275823,"Approved","OW291"
"2023-05-07 00:00",6.88222198781627,"Approved","OW291"
"2023-05-07 01:00",6.88523113287431,"Approved","OW291"
"2023-05-07 02:00",6.88424027793235,"Approved","OW291"
"2023-05-07 03:00",6.88724942299039,"Approved","OW291"
"2023-05-07 04:00",6.89125856804842,"Approved","OW291"
"2023-05-07 05:00",6.89326771310646,"Approved","OW291"
"2023-05-07 06:00",6.8922768581645,"Approved","OW291"
"2023-05-07 07:00",6.89328600322254,"Approved","OW291"
"2023-05-07 08:00",6.89229514828058,"Approved","OW291"
"2023-05-07 09:00",6.89130429333862,"Approved","OW291"
"2023-05-07 10:00",6.89031343839666,"Approved","OW291"
"2023-05-07 11:00",6.8913225834547,"Approved","OW291"
"2023-05-07 12:00",6.88933172851274,"Approved","OW291"
"2023-05-07 13:00",6.89034087357078,"Approved","OW291"
"2023-05-07 14:00",6.89235001862882,"Approved","OW291"
"2023-05-07 15:00",6.89935916368686,"Approved","OW291"
"2023-05-07 16:00",6.9033683087449,"Approved","OW291"
"2023-05-07 17:00",6.90537745380294,"Approved","OW291"
"2023-05-07 18:00",6.90538659886098,"Approved","OW291"
"2023-05-07 19:00",6.90439574391902,"Approved","OW291"
"2023-05-07 20:00",6.90640488897706,"Approved","OW291"
"2023-05-07 21:00",6.9104140340351,"Approved","OW291"
"2023-05-07 22:00",6.91042317909314,"Approved","OW291"
"2023-05-07 23:00",6.92143232415118,"Approved","OW291"
"2023-05-08 00:00",6.91844146920922,"Approved","OW291"
"2023-05-08 01:00",6.91545061426726,"Approved","OW291"
"2023-05-08 02:00",6.9114597593253,"Approved","OW291"
"2023-05-08 03:00",6.91046890438334,"Approved","OW291"
"2023-05-08 04:00",6.91247804944138,"Approved","OW291"
"2023-05-08 05:00",6.91648719449942,"Approved","OW291"
"2023-05-08 06:00",6.91749633955746,"Approved","OW291"
"2023-05-08 07:00",6.9185054846155,"Approved","OW291"
"2023-05-08 08:00",6.91851462967354,"Approved","OW291"
"2023-05-08 09:00",6.91752377473157,"Approved","OW291"
"2023-05-08 10:00",6.91753291978961,"Approved","OW291"
"2023-05-08 11:00",6.91454206484765,"Approved","OW291"
"2023-05-08 12:00",6.91355120990569,"Approved","OW291"
"2023-05-08 13:00",6.91556035496373,"Approved","OW291"
"2023-05-08 14:00",6.91956950002177,"Approved","OW291"
"2023-05-08 15:00",6.92557864507981,"Approved","OW291"
"2023-05-08 16:00",6.92758779013785,"Approved","OW291"
"2023-05-08 17:00",6.92959693519589,"Approved","OW291"
"2023-05-08 18:00",6.93560608025393,"Approved","OW291"
"2023-05-08 19:00",6.93661522531197,"Approved","OW291"
"2023-05-08 20:00",6.93462437037001,"Approved","OW291"
"2023-05-08 21:00",6.93163351542805,"Approved","OW291"
"2023-05-08 22:00",6.93464266048609,"Approved","OW291"
"2023-05-08 23:00",6.92665180554413,"Approved","OW291"
"2023-05-09 00:00",6.92166095060217,"Approved","OW291"
"2023-05-09 01:00",6.92067009566021,"Approved","OW291"
"2023-05-09 02:00",6.92167924071825,"Approved","OW291"
"2023-05-09 03:00",6.91968838577629,"Approved","OW291"
"2023-05-09 04:00",6.92269753083433,"Approved","OW291"
"2023-05-09 05:00",6.92570667589237,"Approved","OW291"
"2023-05-09 06:00",6.92871582095041,"Approved","OW291"
"2023-05-09 07:00",6.93072496600845,"Approved","OW291"
"2023-05-09 08:00",6.93073411106649,"Approved","OW291"
"2023-05-09 09:00",6.93174325612453,"Approved","OW291"
"2023-05-09 10:00",6.92975240118257,"Approved","OW291"
"2023-05-09 11:00",6.93176154624061,"Approved","OW291"
"2023-05-09 12:00",6.93377069129865,"Approved","OW291"
"2023-05-09 13:00",6.93577983635669,"Approved","OW291"
"2023-05-09 14:00",6.93878898141473,"Approved","OW291"
"2023-05-09 15:00",6.93979812647277,"Approved","OW291"
"2023-05-09 16:00",6.94080727153081,"Approved","OW291"
"2023-05-09 17:00",6.94381641658884,"Approved","OW291"
"2023-05-09 18:00",6.94582556164688,"Approved","OW291"
"2023-05-09 19:00",6.94383470670492,"Approved","OW291"
"2023-05-09 20:00",6.94384385176296,"Approved","OW291"
"2023-05-09 21:00",6.941852996821,"Approved","OW291"
"2023-05-09 22:00",6.94186214187904,"Approved","OW291"
"2023-05-09 23:00",6.93787128693708,"Approved","OW291"
"2023-05-10 00:00",6.93388043199512,"Approved","OW291"
"2023-05-10 01:00",6.94888957705316,"Approved","OW291"
"2023-05-10 02:00",6.9488987221112,"Approved","OW291"
"2023-05-10 03:00",6.95190786716924,"Approved","OW291"
"2023-05-10 04:00",6.95691701222728,"Approved","OW291"
"2023-05-10 05:00",6.95892615728532,"Approved","OW291"
"2023-05-10 06:00",6.95893530234336,"Approved","OW291"
"2023-05-10 07:00",6.9569444474014,"Approved","OW291"
"2023-05-10 08:00",6.95995359245944,"Approved","OW291"
"2023-05-10 09:00",6.95996273751748,"Approved","OW291"
"2023-05-10 10:00",6.96097188257552,"Approved","OW291"
"2023-05-10 11:00",6.96198102763356,"Approved","OW291"
"2023-05-10 12:00",6.9649901726916,"Approved","OW291"
"2023-05-10 13:00",6.96699931774964,"Approved","OW291"
"2023-05-10 14:00",6.96700846280768,"Approved","OW291"
"2023-05-10 15:00",6.96801760786572,"Approved","OW291"
"2023-05-10 16:00",6.98402675292376,"Approved","OW291"
"2023-05-10 17:00",6.9890358979818,"Approved","OW291"
"2023-05-10 18:00",6.98904504303984,"Approved","OW291"
"2023-05-10 19:00",6.98405418809788,"Approved","OW291"
"2023-05-10 20:00",6.98206333315592,"Approved","OW291"
"2023-05-10 21:00",6.98407247821395,"Approved","OW291"
"2023-05-10 22:00",6.981081623272,"Approved","OW291"
"2023-05-10 23:00",6.98109076833004,"Approved","OW291"
"2023-05-11 00:00",6.98109991338807,"Approved","OW291"
"2023-05-11 01:00",6.97710905844611,"Approved","OW291"
"2023-05-11 02:00",6.97711820350415,"Approved","OW291"
"2023-05-11 03:00",6.98012734856219,"Approved","OW291"
"2023-05-11 04:00",6.98713649362023,"Approved","OW291"
"2023-05-11 05:00",6.99214563867827,"Approved","OW291"
"2023-05-11 06:00",6.99415478373631,"Approved","OW291"
"2023-05-11 07:00",6.99516392879435,"Approved","OW291"
"2023-05-11 08:00",6.99617307385239,"Approved","OW291"
"2023-05-11 09:00",6.99818221891043,"Approved","OW291"
"2023-05-11 10:00",6.99919136396847,"Approved","OW291"
"2023-05-11 11:00",7.00020050902651,"Approved","OW291"
"2023-05-11 12:00",7.00220965408455,"Approved","OW291"
"2023-05-11 13:00",7.00421879914259,"Approved","OW291"
"2023-05-11 14:00",7.00822794420063,"Approved","OW291"
"2023-05-11 15:00",7.01023708925867,"Approved","OW291"
"2023-05-11 16:00",7.01124623431671,"Approved","OW291"
"2023-05-11 17:00",7.01225537937475,"Approved","OW291"
"2023-05-11 18:00",7.01226452443279,"Approved","OW291"
"2023-05-11 19:00",7.01227366949083,"Approved","OW291"
"2023-05-11 20:00",7.01828281454887,"Approved","OW291"
"2023-05-11 21:00",7.02629195960691,"Approved","OW291"
"2023-05-11 22:00",7.04230110466495,"Approved","OW291"
"2023-05-11 23:00",7.05531024972299,"Approved","OW291"
"2023-05-12 00:00",7.05531939478103,"Approved","OW291"
"2023-05-12 01:00",7.06932853983907,"Approved","OW291"
"2023-05-12 02:00",7.08333768489711,"Approved","OW291"
"2023-05-12 03:00",7.09434682995515,"Approved","OW291"
"2023-05-12 04:00",7.09735597501319,"Approved","OW291"
"2023-05-12 05:00",7.09836512007123,"Approved","OW291"
"2023-05-12 06:00",7.09737426512926,"Approved","OW291"
"2023-05-12 07:00",7.0963834101873,"Approved","OW291"
"2023-05-12 08:00",7.09739255524534,"Approved","OW291"
"2023-05-12 09:00",7.09840170030338,"Approved","OW291"
"2023-05-12 10:00",7.10041084536142,"Approved","OW291"
"2023-05-12 11:00",7.10241999041946,"Approved","OW291"
"2023-05-12 12:00",7.1054291354775,"Approved","OW291"
"2023-05-12 13:00",7.10843828053554,"Approved","OW291"
"2023-05-12 14:00",7.10944742559358,"Approved","OW291"
"2023-05-12 15:00",7.11445657065162,"Approved","OW291"
"2023-05-12 16:00",7.12046571570966,"Approved","OW291"
"2023-05-12 17:00",7.1274748607677,"Approved","OW291"
"2023-05-12 18:00",7.13048400582574,"Approved","OW291"
"2023-05-12 19:00",7.12949315088378,"Approved","OW291"
"2023-05-12 20:00",7.12650229594182,"Approved","OW291"
"2023-05-12 21:00",7.12451144099986,"Approved","OW291"
"2023-05-12 22:00",7.1265205860579,"Approved","OW291"
"2023-05-12 23:00",7.13652973111594,"Approved","OW291"
"2023-05-13 00:00",7.15053887617398,"Approved","OW291"
"2023-05-13 01:00",7.15754802123202,"Approved","OW291"
"2023-05-13 02:00",7.18255716629006,"Approved","OW291"
"2023-05-13 03:00",7.1895663113481,"Approved","OW291"
"2023-05-13 04:00",7.19157545640614,"Approved","OW291"
"2023-05-13 05:00",7.19758460146418,"Approved","OW291"
"2023-05-13 06:00",7.19759374652222,"Approved","OW291"
"2023-05-13 07:00",7.19860289158026,"Approved","OW291"
"2023-05-13 08:00",7.2006120366383,"Approved","OW291"
"2023-05-13 09:00",7.20262118169634,"Approved","OW291"
"2023-05-13 10:00",7.20363032675438,"Approved","OW291"
"2023-05-13 11:00",7.20563947181241,"Approved","OW291"
"2023-05-13 12:00",7.20764861687045,"Approved","OW291"
"2023-05-13 13:00",7.21065776192849,"Approved","OW291"
"2023-05-13 14:00",7.21266690698653,"Approved","OW291"
"2023-05-13 15:00",7.21467605204457,"Approved","OW291"
"2023-05-13 16:00",7.21668519710261,"Approved","OW291"
"2023-05-13 17:00",7.20969434216065,"Approved","OW291"
"2023-05-13 18:00",7.20870348721869,"Approved","OW291"
"2023-05-13 19:00",7.20571263227673,"Approved","OW291"
"2023-05-13 20:00",7.20272177733477,"Approved","OW291"
"2023-05-13 21:00",7.20073092239281,"Approved","OW291"
"2023-05-13 22:00",7.19774006745085,"Approved","OW291"
"2023-05-13 23:00",7.19974921250889,"Approved","OW291"
"2023-05-14 00:00",7.19475835756693,"Approved","OW291"
"2023-05-14 01:00",7.21976750262497,"Approved","OW291"
"2023-05-14 02:00",7.22377664768301,"Approved","OW291"
"2023-05-14 03:00",7.22578579274105,"Approved","OW291"
"2023-05-14 04:00",7.23179493779909,"Approved","OW291"
"2023-05-14 05:00",7.23480408285713,"Approved","OW291"
"2023-05-14 06:00",7.23481322791517,"Approved","OW291"
"2023-05-14 07:00",7.23382237297321,"Approved","OW291"
"2023-05-14 08:00",7.23283151803125,"Approved","OW291"
"2023-05-14 09:00",7.23184066308929,"Approved","OW291"
"2023-05-14 10:00",7.22884980814733,"Approved","OW291"
"2023-05-14 11:00",7.22885895320537,"Approved","OW291"
"2023-05-14 12:00",7.22986809826341,"Approved","OW291"
"2023-05-14 13:00",7.23587724332145,"Approved","OW291"
"2023-05-14 14:00",7.24388638837949,"Approved","OW291"
"2023-05-14 15:00",7.25189553343753,"Approved","OW291"
"2023-05-14 16:00",7.25290467849557,"Approved","OW291"
"2023-05-14 17:00",7.2539138235536,"Approved","OW291"
"2023-05-14 18:00",7.25692296861164,"Approved","OW291"
"2023-05-14 19:00",7.26393211366968,"Approved","OW291"
"2023-05-14 20:00",7.26694125872772,"Approved","OW291"
"2023-05-14 21:00",7.26295040378576,"Approved","OW291"
"2023-05-14 22:00",7.2679595488438,"Approved","OW291"
"2023-05-14 23:00",7.28296869390184,"Approved","OW291"
"2023-05-15 00:00",7.30497783895988,"Approved","OW291"
"2023-05-15 01:00",7.32898698401792,"Approved","OW291"
"2023-05-15 02:00",7.33399612907596,"Approved","OW291"
"2023-05-15 03:00",7.332005274134,"Approved","OW291"
"2023-05-15 04:00",7.33301441919204,"Approved","OW291"
"2023-05-15 05:00",7.32902356425008,"Approved","OW291"
"2023-05-15 06:00",7.32303270930812,"Approved","OW291"
"2023-05-15 07:00",7.31604185436616,"Approved","OW291"
"2023-05-15 08:00",7.3100509994242,"Approved","OW291"
"2023-05-15 09:00",7.30406014448224,"Approved","OW291"
"2023-05-15 10:00",7.29806928954028,"Approved","OW291"
"2023-05-15 11:00",7.29507843459832,"Approved","OW291"
"2023-05-15 12:00",7.29508757965636,"Approved","OW291"
"2023-05-15 13:00",7.2980967247144,"Approved","OW291"
"2023-05-15 14:00",7.30010586977244,"Approved","OW291"
"2023-05-15 15:00",7.30511501483048,"Approved","OW291"
"2023-05-15 16:00",7.30012415988852,"Approved","OW291"
"2023-05-15 17:00",7.28913330494656,"Approved","OW291"
"2023-05-15 18:00",7.2781424500046,"Approved","OW291"
"2023-05-15 19:00",7.26915159506264,"Approved","OW291"
"2023-05-15 20:00",7.26516074012068,"Approved","OW291"
"2023-05-15 21:00",7.26816988517872,"Approved","OW291"
"2023-05-15 22:00",7.27417903023676,"Approved","OW291"
"2023-05-15 23:00",7.28118817529479,"Approved","OW291"
"2023-05-16 00:00",7.28919732035283,"Approved","OW291"
"2023-05-16 01:00",7.29720646541087,"Approved","OW291"
"2023-05-16 02:00",7.29421561046891,"Approved","OW291"
"2023-05-16 03:00",7.29622475552695,"Approved","OW291"
"2023-05-16 04:00",7.30223390058499,"Approved","OW291"
"2023-05-16 05:00",7.30324304564303,"Approved","OW291"
"2023-05-16 06:00",7.30525219070107,"Approved","OW291"
"2023-05-16 07:00",7.30626133575911,"Approved","OW291"
"2023-05-16 08:00",7.30227048081715,"Approved","OW291"
"2023-05-16 09:00",7.29627962587519,"Approved","OW291"
"2023-05-16 10:00",7.29628877093323,"Approved","OW291"
"2023-05-16 11:00",7.29629791599127,"Approved","OW291"
"2023-05-16 12:00",7.30130706104931,"Approved","OW291"
"2023-05-16 13:00",7.30831620610735,"Approved","OW291"
"2023-05-16 14:00",7.31832535116539,"Approved","OW291"
"2023-05-16 15:00",7.32233449622343,"Approved","OW291"
"2023-05-16 16:00",7.32534364128147,"Approved","OW291"
"2023-05-16 17:00",7.31835278633951,"Approved","OW291"
"2023-05-16 18:00",7.34036193139755,"Approved","OW291"
"2023-05-16 19:00",7.34937107645559,"Approved","OW291"
"2023-05-16 20:00",7.34638022151363,"Approved","OW291"
"2023-05-16 21:00",7.33838936657167,"Approved","OW291"
"2023-05-16 22:00",7.33039851162971,"Approved","OW291"
"2023-05-16 23:00",7.31840765668775,"Approved","OW291"
"2023-05-17 00:00",7.31641680174579,"Approved","OW291"
"2023-05-17 01:00",7.34042594680383,"Approved","OW291"
"2023-05-17 02:00",7.34143509186187,"Approved","OW291"
"2023-05-17 03:00",7.34044423691991,"Approved","OW291"
"2023-05-17 04:00",7.33545338197795,"Approved","OW291"
"2023-05-17 05:00",7.33846252703599,"Approved","OW291"
"2023-05-17 06:00",7.34847167209402,"Approved","OW291"
"2023-05-17 07:00",7.35348081715206,"Approved","OW291"
"2023-05-17 08:00",7.3414899622101,"Approved","OW291"
"2023-05-17 09:00",7.34049910726814,"Approved","OW291"
"2023-05-17 10:00",7.33650825232618,"Approved","OW291"
"2023-05-17 11:00",7.33251739738422,"Approved","OW291"
"2023-05-17 12:00",7.33452654244226,"Approved","OW291"
"2023-05-17 13:00",7.3405356875003,"Approved","OW291"
"2023-05-17 14:00",7.34154483255834,"Approved","OW291"
"2023-05-17 15:00",7.33855397761638,"Approved","OW291"
"2023-05-17 16:00",7.33956312267442,"Approved","OW291"
"2023-05-17 17:00",7.34057226773246,"Approved","OW291"
"2023-05-17 18:00",7.3425814127905,"Approved","OW291"
"2023-05-17 19:00",7.33559055784854,"Approved","OW291"
"2023-05-17 20:00",7.32359970290658,"Approved","OW291"
"2023-05-17 21:00",7.32660884796462,"Approved","OW291"
"2023-05-17 22:00",7.32061799302266,"Approved","OW291"
"2023-05-17 23:00",7.3216271380807,"Approved","OW291"
"2023-05-18 00:00",7.31763628313874,"Approved","OW291"
"2023-05-18 01:00",7.31764542819678,"Approved","OW291"
"2023-05-18 02:00",7.31565457325482,"Approved","OW291"
"2023-05-18 03:00",7.32666371831286,"Approved","OW291"
"2023-05-18 04:00",7.3376728633709,"Approved","OW291"
"2023-05-18 05:00",7.34568200842894,"Approved","OW291"
"2023-05-18 06:00",7.35669115348698,"Approved","OW291"
"2023-05-18 07:00",7.37070029854502,"Approved","OW291"
"2023-05-18 08:00",7.36470944360306,"Approved","OW291"
"2023-05-18 09:00",7.3667185886611,"Approved","OW291"
"2023-05-18 10:00",7.36572773371914,"Approved","OW291"
"2023-05-18 11:00",7.36873687877717,"Approved","OW291"
"2023-05-18 12:00",7.36974602383521,"Approved","OW291"
"2023-05-18 13:00",7.37275516889325,"Approved","OW291"
"2023-05-18 14:00",7.37476431395129,"Approved","OW291"
"2023-05-18 15:00",7.37777345900933,"Approved","OW291"
"2023-05-18 16:00",7.38078260406737,"Approved","OW291"
"2023-05-18 17:00",7.38179174912541,"Approved","OW291"
"2023-05-18 18:00",7.37980089418345,"Approved","OW291"
"2023-05-18 19:00",7.37681003924149,"Approved","OW291"
"2023-05-18 20:00",7.37481918429953,"Approved","OW291"
"2023-05-18 21:00",7.37282832935757,"Approved","OW291"
"2023-05-18 22:00",7.36783747441561,"Approved","OW291"
"2023-05-18 23:00",7.36784661947365,"Approved","OW291"
"2023-05-19 00:00",7.36985576453169,"Approved","OW291"
"2023-05-19 01:00",7.36886490958973,"Approved","OW291"
"2023-05-19 02:00",7.36987405464777,"Approved","OW291"
"2023-05-19 03:00",7.37688319970581,"Approved","OW291"
"2023-05-19 04:00",7.38889234476385,"Approved","OW291"
"2023-05-19 05:00",7.41190148982189,"Approved","OW291"
"2023-05-19 06:00",7.44391063487993,"Approved","OW291"
"2023-05-19 07:00",7.47991977993797,"Approved","OW291"
"2023-05-19 08:00",7.51092892499601,"Approved","OW291"
"2023-05-19 09:00",7.53893807005405,"Approved","OW291"
"2023-05-19 10:00",7.56694721511209,"Approved","OW291"
"2023-05-19 11:00",7.59295636017013,"Approved","OW291"
"2023-05-19 12:00",7.61796550522817,"Approved","OW291"
"2023-05-19 13:00",7.64597465028621,"Approved","OW291"
"2023-05-19 14:00",7.67298379534425,"Approved","OW291"
"2023-05-19 15:00",7.69299294040229,"Approved","OW291"
"2023-05-19 16:00",7.69400208546033,"Approved","OW291"
"2023-05-19 17:00",7.68701123051837,"Approved","OW291"
"2023-05-19 18:00",7.67902037557641,"Approved","OW291"
"2023-05-19 19:00",7.66502952063444,"Approved","OW291"
"2023-05-19 20:00",7.65103866569248,"Approved","OW291"
"2023-05-19 21:00",7.63704781075052,"Approved","OW291"
"2023-05-19 22:00",7.63305695580856,"Approved","OW291"
"2023-05-19 23:00",7.6300661008666,"Approved","OW291"
"2023-05-20 00:00",7.64807524592464,"Approved","OW291"
"2023-05-20 01:00",7.68808439098268,"Approved","OW291"
"2023-05-20 02:00",7.70409353604072,"Approved","OW291"
"2023-05-20 03:00",7.71810268109876,"Approved","OW291"
"2023-05-20 04:00",7.7341118261568,"Approved","OW291"
"2023-05-20 05:00",7.74512097121484,"Approved","OW291"
"2023-05-20 06:00",7.75313011627288,"Approved","OW291"
"2023-05-20 07:00",7.74713926133092,"Approved","OW291"
"2023-05-20 08:00",7.74014840638896,"Approved","OW291"
"2023-05-20 09:00",7.732157551447,"Approved","OW291"
"2023-05-20 10:00",7.72316669650504,"Approved","OW291"
"2023-05-20 11:00",7.71517584156308,"Approved","OW291"
"2023-05-20 12:00",7.71218498662112,"Approved","OW291"
"2023-05-20 13:00",7.71519413167916,"Approved","OW291"
"2023-05-20 14:00",7.7162032767372,"Approved","OW291"
"2023-05-20 15:00",7.71921242179524,"Approved","OW291"
"2023-05-20 16:00",7.71922156685328,"Approved","OW291"
"2023-05-20 17:00",7.70823071191132,"Approved","OW291"
"2023-05-20 18:00",7.70523985696936,"Approved","OW291"
"2023-05-20 19:00",7.6962490020274,"Approved","OW291"
"2023-05-20 20:00",7.68125814708544,"Approved","OW291"
"2023-05-20 21:00",7.67926729214348,"Approved","OW291"
"2023-05-20 22:00",7.67427643720152,"Approved","OW291"
"2023-05-20 23:00",7.68928558225956,"Approved","OW291"
"2023-05-21 00:00",7.71329472731759,"Approved","OW291"
"2023-05-21 01:00",7.73930387237563,"Approved","OW291"
"2023-05-21 02:00",7.74431301743367,"Approved","OW291"
"2023-05-21 03:00",7.73832216249171,"Approved","OW291"
"2023-05-21 04:00",7.72933130754975,"Approved","OW291"
"2023-05-21 05:00",7.72134045260779,"Approved","OW291"
"2023-05-21 06:00",7.71634959766583,"Approved","OW291"
"2023-05-21 07:00",7.71135874272387,"Approved","OW291"
"2023-05-21 08:00",7.70636788778191,"Approved","OW291"
"2023-05-21 09:00",7.69937703283995,"Approved","OW291"
"2023-05-21 10:00",7.69838617789799,"Approved","OW291"
"2023-05-21 11:00",7.68739532295603,"Approved","OW291"
"2023-05-21 12:00",7.68140446801407,"Approved","OW291"
"2023-05-21 13:00",7.68241361307211,"Approved","OW291"
"2023-05-21 14:00",7.68742275813015,"Approved","OW291"
"2023-05-21 15:00",7.69943190318819,"Approved","OW291"
"2023-05-21 16:00",7.69144104824623,"Approved","OW291"
"2023-05-21 17:00",7.70945019330427,"Approved","OW291"
"2023-05-21 18:00",7.71445933836231,"Approved","OW291"
"2023-05-21 19:00",7.72046848342035,"Approved","OW291"
"2023-05-21 20:00",7.71547762847839,"Approved","OW291"
"2023-05-21 21:00",7.70648677353643,"Approved","OW291"
"2023-05-21 22:00",7.69249591859447,"Approved","OW291"
"2023-05-21 23:00",7.67950506365251,"Approved","OW291"
"2023-05-22 00:00",7.66851420871055,"Approved","OW291"
"2023-05-22 01:00",7.66552335376859,"Approved","OW291"
"2023-05-22 02:00",7.67653249882663,"Approved","OW291"
"2023-05-22 03:00",7.66754164388467,"Approved","OW291"
"2023-05-22 04:00",7.66155078894271,"Approved","OW291"
"2023-05-22 05:00",7.65855993400075,"Approved","OW291"
"2023-05-22 06:00",7.63456907905879,"Approved","OW291"
"2023-05-22 07:00",7.63757822411683,"Approved","OW291"
"2023-05-22 08:00",7.68158736917486,"Approved","OW291"
"2023-05-22 09:00",7.7325965142329,"Approved","OW291"
"2023-05-22 10:00",7.76860565929094,"Approved","OW291"
"2023-05-22 11:00",7.78561480434898,"Approved","OW291"
"2023-05-22 12:00",7.79262394940702,"Approved","OW291"
"2023-05-22 13:00",7.78763309446506,"Approved","OW291"
"2023-05-22 14:00",7.7776422395231,"Approved","OW291"
"2023-05-22 15:00",7.80165138458114,"Approved","OW291"
"2023-05-22 16:00",7.85766052963918,"Approved","OW291"
"2023-05-22 17:00",7.90066967469722,"Approved","OW291"
"2023-05-22 18:00",7.92667881975526,"Approved","OW291"
"2023-05-22 19:00",7.9426879648133,"Approved","OW291"
"2023-05-22 20:00",7.94969710987134,"Approved","OW291"
"2023-05-22 21:00",7.95770625492938,"Approved","OW291"
"2023-05-22 22:00",7.95671539998742,"Approved","OW291"
"2023-05-22 23:00",7.95472454504546,"Approved","OW291"
"2023-05-23 00:00",7.9527336901035,"Approved","OW291"
"2023-05-23 01:00",7.94674283516154,"Approved","OW291"
"2023-05-23 02:00",7.93975198021958,"Approved","OW291"
"2023-05-23 03:00",7.94076112527762,"Approved","OW291"
"2023-05-23 04:00",7.93977027033566,"Approved","OW291"
"2023-05-23 05:00",7.9387794153937,"Approved","OW291"
"2023-05-23 06:00",7.93578856045174,"Approved","OW291"
"2023-05-23 07:00",7.93279770550978,"Approved","OW291"
"2023-05-23 08:00",7.92580685056782,"Approved","OW291"
"2023-05-23 09:00",7.91881599562586,"Approved","OW291"
"2023-05-23 10:00",7.9128251406839,"Approved","OW291"
"2023-05-23 11:00",7.90883428574194,"Approved","OW291"
"2023-05-23 12:00",7.90184343079997,"Approved","OW291"
"2023-05-23 13:00",7.89985257585801,"Approved","OW291"
"2023-05-23 14:00",7.89786172091605,"Approved","OW291"
"2023-05-23 15:00",7.89587086597409,"Approved","OW291"
"2023-05-23 16:00",7.89488001103213,"Approved","OW291"
"2023-05-23 17:00",7.89388915609017,"Approved","OW291"
"2023-05-23 18:00",7.89189830114821,"Approved","OW291"
"2023-05-23 19:00",7.88690744620625,"Approved","OW291"